DLH1JF EDDM-EKCH

Flight info

Callsign DLH1JF
Flight time 1h 17m
Altitude 35000
Route INPUD2N/26R INPUD Y102 UPALA M726 LASGA DCT BKD DCT LUWIL DCT BERIM DCT MAKEL N851 GESKA Z711 MONAK
Aircraft A320/M-SDE3FGHIRWY/LB1

Departure

Time 2026-05-04 18:42
Airport Munich Airport (EDDM)

Arrival

Time 2026-05-04 20:00
Airport Copenhagen Kastrup Airport (EKCH)
Time Latitude Longitude Altitude Speed Heading
2026-05-04 18:07 48.35582 11.79714 1468 ft 0 kts 83°
2026-05-04 18:26 48.35582 11.79713 1485 ft 1 kts 83°
2026-05-04 18:26 48.35579 11.79676 1481 ft 4 kts 83°
2026-05-04 18:26 48.35576 11.79638 1477 ft 2 kts 83°
2026-05-04 18:26 48.35572 11.79605 1471 ft 4 kts 68°
2026-05-04 18:27 48.35558 11.79576 1473 ft 4 kts 16°
2026-05-04 18:27 48.35534 11.79576 1480 ft 3 kts 353°
2026-05-04 18:27 48.35530 11.79577 1479 ft 0 kts 353°
2026-05-04 18:33 48.35539 11.79575 1477 ft 2 kts 355°
2026-05-04 18:33 48.35542 11.79575 1476 ft 0 kts 355°
2026-05-04 18:34 48.35559 11.79573 1473 ft 3 kts 354°
2026-05-04 18:34 48.35578 11.79570 1477 ft 2 kts 354°
2026-05-04 18:34 48.35597 11.79567 1474 ft 6 kts 354°
2026-05-04 18:34 48.35662 11.79553 1485 ft 11 kts 351°
2026-05-04 18:35 48.35746 11.79540 1475 ft 13 kts 354°
2026-05-04 18:35 48.35841 11.79524 1485 ft 14 kts 352°
2026-05-04 18:35 48.35945 11.79506 1485 ft 15 kts 354°
2026-05-04 18:35 48.36008 11.79495 1472 ft 7 kts 353°
2026-05-04 18:36 48.36020 11.79493 1475 ft 0 kts 353°
2026-05-04 18:36 48.36028 11.79492 1478 ft 5 kts 353°
2026-05-04 18:37 48.36094 11.79480 1485 ft 13 kts 353°
2026-05-04 18:37 48.36192 11.79469 1481 ft 14 kts 17°
2026-05-04 18:37 48.36223 11.79607 1474 ft 15 kts 83°
2026-05-04 18:37 48.36237 11.79783 1473 ft 19 kts 82°
2026-05-04 18:38 48.36255 11.80009 1485 ft 25 kts 83°
2026-05-04 18:38 48.36278 11.80299 1475 ft 30 kts 83°
2026-05-04 18:38 48.36302 11.80612 1485 ft 30 kts 83°
2026-05-04 18:38 48.36326 11.80931 1483 ft 30 kts 84°
2026-05-04 18:39 48.36345 11.81178 1485 ft 16 kts 75°
2026-05-04 18:39 48.36423 11.81180 1483 ft 15 kts 287°
2026-05-04 18:39 48.36463 11.81031 1477 ft 16 kts 292°
2026-05-04 18:39 48.36488 11.80944 1480 ft 0 kts 293°
2026-05-04 18:41 48.36509 11.80870 1484 ft 19 kts 293°
2026-05-04 18:41 48.36573 11.80619 1485 ft 33 kts 274°
2026-05-04 18:42 48.36532 11.80011 1485 ft 91 kts 263°
2026-05-04 18:42 48.36436 11.78756 1480 ft 148 kts 263°
2026-05-04 18:42 48.36307 11.77032 1729 ft 174 kts 265°
2026-05-04 18:42 48.36188 11.75251 2452 ft 174 kts 266°
2026-05-04 18:43 48.36068 11.73385 2954 ft 188 kts 266°
2026-05-04 18:43 48.35917 11.71316 3257 ft 210 kts 265°
2026-05-04 18:43 48.35745 11.69025 3547 ft 231 kts 268°
2026-05-04 18:43 48.36096 11.66671 4155 ft 237 kts 305°
2026-05-04 18:44 48.37369 11.65027 4594 ft 257 kts 336°
2026-05-04 18:44 48.38517 11.64432 4936 ft 268 kts 347°
2026-05-04 18:44 48.41030 11.63796 5995 ft 278 kts 352°
2026-05-04 18:44 48.42967 11.63452 6829 ft 283 kts 352°
2026-05-04 18:45 48.44941 11.63072 7642 ft 288 kts 350°
2026-05-04 18:45 48.46912 11.62628 8453 ft 293 kts 348°
2026-05-04 18:45 48.48936 11.62112 9285 ft 297 kts 347°
2026-05-04 18:45 48.50991 11.61538 10060 ft 303 kts 345°
2026-05-04 18:46 48.53070 11.60582 10359 ft 324 kts 337°
2026-05-04 18:46 48.55251 11.59392 10764 ft 340 kts 336°
2026-05-04 18:46 48.57490 11.58136 11452 ft 346 kts 336°
2026-05-04 18:46 48.59763 11.56852 12201 ft 351 kts 336°
2026-05-04 18:47 48.62059 11.55555 12945 ft 355 kts 337°
2026-05-04 18:47 48.64397 11.54287 13675 ft 360 kts 342°
2026-05-04 18:47 48.66850 11.53610 14286 ft 366 kts 349°
2026-05-04 18:47 48.69375 11.53059 14944 ft 369 kts 349°
2026-05-04 18:48 48.71924 11.52515 15607 ft 371 kts 350°
2026-05-04 18:48 48.74496 11.51972 16275 ft 374 kts 350°
2026-05-04 18:48 48.77076 11.51428 16933 ft 377 kts 350°
2026-05-04 18:48 48.79684 11.50872 17585 ft 380 kts 349°
2026-05-04 18:49 48.82307 11.50307 18231 ft 382 kts 349°
2026-05-04 18:49 48.84953 11.49731 18777 ft 385 kts 349°
2026-05-04 18:49 48.87615 11.49154 19323 ft 388 kts 349°
2026-05-04 18:49 48.90299 11.48576 19871 ft 391 kts 349°
2026-05-04 18:50 48.92961 11.47999 20405 ft 394 kts 349°
2026-05-04 18:50 48.95690 11.47409 20946 ft 397 kts 349°
2026-05-04 18:50 48.98433 11.46816 21461 ft 400 kts 349°
2026-05-04 18:50 49.01197 11.46220 21959 ft 403 kts 349°
2026-05-04 18:51 49.03979 11.45619 22439 ft 406 kts 349°
2026-05-04 18:51 49.06788 11.45008 22930 ft 409 kts 349°
2026-05-04 18:51 49.09620 11.44387 23400 ft 412 kts 349°
2026-05-04 18:51 49.12468 11.43764 23812 ft 415 kts 349°
2026-05-04 18:52 49.15338 11.43137 24213 ft 418 kts 349°
2026-05-04 18:52 49.18225 11.42505 24630 ft 420 kts 349°
2026-05-04 18:52 49.21071 11.41883 25045 ft 421 kts 349°
2026-05-04 18:52 49.23990 11.41243 25464 ft 423 kts 349°
2026-05-04 18:53 49.26913 11.40601 25860 ft 425 kts 349°
2026-05-04 18:53 49.29849 11.39957 26251 ft 427 kts 349°
2026-05-04 18:53 49.32801 11.39312 26640 ft 429 kts 349°
2026-05-04 18:53 49.35767 11.38659 27023 ft 431 kts 349°
2026-05-04 18:54 49.38743 11.38001 27391 ft 434 kts 349°
2026-05-04 18:54 49.41734 11.37340 27781 ft 435 kts 348°
2026-05-04 18:54 49.44742 11.36675 28162 ft 437 kts 348°
2026-05-04 18:54 49.47762 11.36008 28536 ft 439 kts 348°
2026-05-04 18:55 49.50753 11.35354 28897 ft 441 kts 349°
2026-05-04 18:55 49.56866 11.34008 29608 ft 446 kts 348°
2026-05-04 18:55 49.59943 11.33322 29960 ft 448 kts 348°
2026-05-04 18:56 49.63033 11.32633 30239 ft 450 kts 348°
2026-05-04 18:56 49.66137 11.31940 30516 ft 452 kts 348°
2026-05-04 18:56 49.69259 11.31241 30758 ft 455 kts 348°
2026-05-04 18:56 49.72405 11.30540 30993 ft 458 kts 348°
2026-05-04 18:57 49.75560 11.29838 31247 ft 460 kts 349°
2026-05-04 18:57 49.78731 11.29130 31562 ft 460 kts 349°
2026-05-04 18:57 49.81890 11.28424 31927 ft 459 kts 349°
2026-05-04 18:57 49.85005 11.27723 32281 ft 458 kts 349°
2026-05-04 18:58 49.88161 11.27013 32658 ft 458 kts 348°
2026-05-04 18:58 49.91305 11.26305 33068 ft 455 kts 348°
2026-05-04 18:58 49.94436 11.25601 33452 ft 454 kts 348°
2026-05-04 18:58 49.97562 11.24897 33822 ft 453 kts 348°
2026-05-04 18:59 50.00679 11.24192 34152 ft 453 kts 348°
2026-05-04 18:59 50.03791 11.23487 34459 ft 452 kts 348°
2026-05-04 18:59 50.06908 11.22819 34746 ft 453 kts 352°
2026-05-04 18:59 50.10064 11.22653 35016 ft 455 kts 357°
2026-05-04 19:00 50.13185 11.22673 35307 ft 454 kts 357°
2026-05-04 19:00 50.16339 11.22690 35578 ft 453 kts 356°
2026-05-04 19:00 50.19492 11.22707 35846 ft 453 kts 356°
2026-05-04 19:00 50.22642 11.22721 36101 ft 453 kts 356°
2026-05-04 19:01 50.25794 11.22737 36341 ft 452 kts 356°
2026-05-04 19:01 50.28941 11.22758 36580 ft 452 kts 356°
2026-05-04 19:01 50.32084 11.22783 36815 ft 452 kts 356°
2026-05-04 19:01 50.35228 11.22808 36959 ft 451 kts 356°
2026-05-04 19:02 50.41458 11.23181 36969 ft 451 kts
2026-05-04 19:02 50.47718 11.23990 36970 ft 451 kts
2026-05-04 19:03 50.53965 11.25053 36973 ft 452 kts
2026-05-04 19:03 50.60197 11.26476 36972 ft 453 kts
2026-05-04 19:04 50.66428 11.27954 36970 ft 453 kts
2026-05-04 19:04 50.72618 11.29342 36970 ft 452 kts
2026-05-04 19:05 50.78858 11.30695 37005 ft 453 kts
2026-05-04 19:05 50.85102 11.32050 36987 ft 453 kts
2026-05-04 19:06 50.91351 11.33426 36976 ft 454 kts
2026-05-04 19:06 50.97603 11.34818 36972 ft 454 kts
2026-05-04 19:07 51.03818 11.36196 36984 ft 454 kts
2026-05-04 19:07 51.10075 11.37583 36979 ft 454 kts
2026-05-04 19:08 51.16331 11.38984 36977 ft 454 kts
2026-05-04 19:08 51.22587 11.40388 36976 ft 454 kts
2026-05-04 19:09 51.28802 11.41787 36986 ft 454 kts
2026-05-04 19:09 51.35055 11.43198 36981 ft 454 kts
2026-05-04 19:10 51.41304 11.44602 36978 ft 454 kts
2026-05-04 19:10 51.47551 11.46003 36974 ft 453 kts
2026-05-04 19:11 51.53800 11.47426 36977 ft 453 kts
2026-05-04 19:11 51.60000 11.48858 36969 ft 453 kts
2026-05-04 19:12 51.69370 11.50996 36956 ft 453 kts
2026-05-04 19:13 51.75614 11.52420 36966 ft 453 kts
2026-05-04 19:13 51.81855 11.53850 36961 ft 453 kts
2026-05-04 19:14 51.88088 11.55289 36958 ft 453 kts
2026-05-04 19:14 51.94279 11.56728 36957 ft 453 kts
2026-05-04 19:15 52.00516 11.58168 36955 ft 453 kts
2026-05-04 19:15 52.06763 11.59582 36955 ft 453 kts
2026-05-04 19:16 52.13005 11.61038 36961 ft 453 kts
2026-05-04 19:16 52.19198 11.62498 36984 ft 453 kts
2026-05-04 19:17 52.25429 11.63955 36977 ft 452 kts
2026-05-04 19:17 52.31652 11.65416 36972 ft 452 kts
2026-05-04 19:18 52.37927 11.66894 36956 ft 461 kts
2026-05-04 19:18 52.44318 11.68401 36966 ft 466 kts
2026-05-04 19:19 52.50751 11.69929 36956 ft 468 kts
2026-05-04 19:19 52.57194 11.71466 36960 ft 473 kts
2026-05-04 19:20 52.63711 11.73019 36960 ft 473 kts
2026-05-04 19:20 52.70229 11.74585 36973 ft 474 kts
2026-05-04 19:21 52.76760 11.76155 36963 ft 474 kts
2026-05-04 19:21 52.83293 11.77729 36957 ft 475 kts
2026-05-04 19:22 52.89781 11.79297 36965 ft 475 kts
2026-05-04 19:22 52.96326 11.80890 36962 ft 475 kts
2026-05-04 19:23 53.02868 11.82485 36963 ft 475 kts
2026-05-04 19:23 53.09411 11.84071 36964 ft 475 kts
2026-05-04 19:24 53.15911 11.85657 36993 ft 475 kts
2026-05-04 19:24 53.22451 11.87265 36984 ft 475 kts
2026-05-04 19:25 53.29000 11.88880 36981 ft 475 kts
2026-05-04 19:25 53.35547 11.90501 36979 ft 475 kts
2026-05-04 19:26 53.42046 11.92099 37005 ft 475 kts
2026-05-04 19:26 53.48581 11.93721 36999 ft 474 kts
2026-05-04 19:27 53.55101 11.95358 36996 ft 473 kts
2026-05-04 19:27 53.61612 11.96981 36991 ft 473 kts
2026-05-04 19:28 53.68075 11.98596 37011 ft 472 kts
2026-05-04 19:28 53.74561 12.00229 37003 ft 471 kts
2026-05-04 19:28 53.77792 12.01042 36778 ft 468 kts
2026-05-04 19:29 53.81008 12.01855 36095 ft 467 kts
2026-05-04 19:29 53.84223 12.02676 35387 ft 467 kts
2026-05-04 19:29 53.87420 12.03494 34820 ft 463 kts
2026-05-04 19:29 53.90588 12.04301 34344 ft 458 kts
2026-05-04 19:30 53.93719 12.05100 33652 ft 451 kts
2026-05-04 19:30 53.96802 12.05889 32617 ft 446 kts
2026-05-04 19:30 53.99867 12.06669 31738 ft 445 kts
2026-05-04 19:30 54.02911 12.07442 31046 ft 444 kts
2026-05-04 19:31 54.05919 12.08205 30494 ft 441 kts
2026-05-04 19:31 54.08940 12.08973 29984 ft 436 kts
2026-05-04 19:31 54.11923 12.09734 29456 ft 431 kts
2026-05-04 19:31 54.14869 12.10490 29007 ft 424 kts
2026-05-04 19:32 54.17768 12.11236 28509 ft 419 kts
2026-05-04 19:32 54.20625 12.11974 28057 ft 412 kts
2026-05-04 19:32 54.23441 12.12702 27600 ft 406 kts
2026-05-04 19:32 54.26216 12.13420 27146 ft 402 kts
2026-05-04 19:33 54.28934 12.14603 26690 ft 403 kts
2026-05-04 19:33 54.31574 12.15967 26166 ft 402 kts
2026-05-04 19:33 54.34248 12.17364 25692 ft 399 kts 10°
2026-05-04 19:33 54.36898 12.18759 25201 ft 397 kts 10°
2026-05-04 19:34 54.39533 12.20148 24739 ft 395 kts
2026-05-04 19:34 54.42163 12.21532 24204 ft 395 kts
2026-05-04 19:34 54.44785 12.22906 23698 ft 394 kts
2026-05-04 19:34 54.47405 12.24280 23137 ft 393 kts
2026-05-04 19:35 54.50009 12.25649 22637 ft 390 kts 10°
2026-05-04 19:35 54.52593 12.27009 22150 ft 387 kts 10°
2026-05-04 19:35 54.55124 12.28345 21661 ft 384 kts 11°
2026-05-04 19:35 54.57674 12.29695 21194 ft 382 kts 11°
2026-05-04 19:36 54.60204 12.31038 20722 ft 380 kts 11°
2026-05-04 19:36 54.62723 12.32377 20259 ft 378 kts 11°
2026-05-04 19:36 54.65232 12.33713 19790 ft 377 kts 12°
2026-05-04 19:36 54.67724 12.35038 19370 ft 374 kts 12°
2026-05-04 19:37 54.70200 12.36352 18989 ft 370 kts 12°
2026-05-04 19:37 54.72665 12.37663 18531 ft 369 kts 13°
2026-05-04 19:37 54.75099 12.38965 18159 ft 365 kts 13°
2026-05-04 19:37 54.77483 12.40242 17599 ft 361 kts 13°
2026-05-04 19:38 54.79852 12.41509 17039 ft 350 kts 13°
2026-05-04 19:38 54.82138 12.42736 16633 ft 337 kts 13°
2026-05-04 19:38 54.84338 12.43919 16239 ft 326 kts 12°
2026-05-04 19:38 54.86497 12.45077 15849 ft 324 kts 12°
2026-05-04 19:39 54.88647 12.46224 15494 ft 323 kts 12°
2026-05-04 19:39 54.90805 12.47374 15080 ft 325 kts 12°
2026-05-04 19:39 54.92964 12.48529 14700 ft 325 kts 12°
2026-05-04 19:39 54.95129 12.49688 14311 ft 326 kts 12°
2026-05-04 19:40 54.97298 12.50855 13937 ft 327 kts 12°
2026-05-04 19:40 54.99446 12.52015 13524 ft 328 kts 12°
2026-05-04 19:40 55.01622 12.53193 13122 ft 327 kts 12°
2026-05-04 19:40 55.03788 12.54370 12727 ft 326 kts 13°
2026-05-04 19:41 55.05941 12.55543 12423 ft 321 kts 13°
2026-05-04 19:41 55.08043 12.56690 12261 ft 312 kts 12°
2026-05-04 19:41 55.10102 12.57810 11970 ft 309 kts 12°
2026-05-04 19:41 55.12145 12.58921 11650 ft 306 kts 12°
2026-05-04 19:42 55.14174 12.60022 11326 ft 304 kts 12°
2026-05-04 19:42 55.16162 12.61100 11022 ft 302 kts 13°
2026-05-04 19:42 55.18167 12.62194 10724 ft 301 kts 13°
2026-05-04 19:42 55.20160 12.63285 10471 ft 300 kts 13°
2026-05-04 19:43 55.22144 12.64375 10234 ft 298 kts 13°
2026-05-04 19:43 55.24119 12.65461 9990 ft 297 kts 13°
2026-05-04 19:43 55.26080 12.66561 9744 ft 295 kts 13°
2026-05-04 19:43 55.28032 12.67672 9473 ft 294 kts 14°
2026-05-04 19:44 55.29974 12.68785 9208 ft 293 kts 14°
2026-05-04 19:44 55.31906 12.69896 8942 ft 292 kts 14°
2026-05-04 19:44 55.33833 12.70999 8675 ft 291 kts 14°
2026-05-04 19:44 55.35724 12.72081 8425 ft 289 kts 14°
2026-05-04 19:45 55.37635 12.73175 8164 ft 288 kts 14°
2026-05-04 19:45 55.39537 12.74265 7910 ft 287 kts 14°
2026-05-04 19:45 55.41430 12.75349 7644 ft 284 kts 14°
2026-05-04 19:45 55.43289 12.76416 7407 ft 277 kts 14°
2026-05-04 19:46 55.45108 12.77460 7153 ft 273 kts 14°
2026-05-04 19:46 55.46900 12.78490 6900 ft 268 kts 14°
2026-05-04 19:46 55.48651 12.79498 6659 ft 262 kts 14°
2026-05-04 19:46 55.50350 12.80475 6419 ft 259 kts 14°
2026-05-04 19:47 55.52041 12.81451 6166 ft 253 kts 14°
2026-05-04 19:47 55.53695 12.82407 5907 ft 248 kts 14°
2026-05-04 19:47 55.55324 12.83347 5668 ft 245 kts 14°
2026-05-04 19:47 55.56925 12.84356 5413 ft 244 kts 17°
2026-05-04 19:48 55.58499 12.85467 5155 ft 243 kts 19°
2026-05-04 19:48 55.60055 12.86604 4905 ft 241 kts 19°
2026-05-04 19:48 55.61594 12.87736 4649 ft 237 kts 20°
2026-05-04 19:48 55.63031 12.89145 4408 ft 237 kts 32°
2026-05-04 19:49 55.64265 12.90992 4205 ft 233 kts 38°
2026-05-04 19:49 55.65460 12.92877 4063 ft 226 kts 38°
2026-05-04 19:49 55.66622 12.94689 3993 ft 220 kts 37°
2026-05-04 19:49 55.67773 12.96457 3996 ft 219 kts 37°
2026-05-04 19:50 55.68923 12.98239 3900 ft 222 kts 38°
2026-05-04 19:50 55.70103 13.00055 3510 ft 227 kts 37°
2026-05-04 19:50 55.71353 13.01763 3213 ft 224 kts 26°
2026-05-04 19:50 55.72736 13.02978 3027 ft 218 kts 21°
2026-05-04 19:51 55.74093 13.04057 2986 ft 211 kts 20°
2026-05-04 19:51 55.75410 13.05092 2989 ft 209 kts 20°
2026-05-04 19:51 55.76739 13.06138 2986 ft 208 kts 20°
2026-05-04 19:51 55.78062 13.07180 2988 ft 208 kts 20°
2026-05-04 19:52 55.79412 13.08053 2987 ft 205 kts
2026-05-04 19:52 55.80826 13.08190 2984 ft 203 kts 357°
2026-05-04 19:52 55.82238 13.08147 2983 ft 202 kts 354°
2026-05-04 19:52 55.83533 13.07387 2983 ft 197 kts 319°
2026-05-04 19:53 55.84333 13.05468 2987 ft 195 kts 291°
2026-05-04 19:53 55.84555 13.03126 2987 ft 197 kts 266°
2026-05-04 19:53 55.84142 13.00798 2985 ft 201 kts 240°
2026-05-04 19:53 55.83180 12.98978 2993 ft 204 kts 225°
2026-05-04 19:54 55.82110 12.97310 2988 ft 205 kts 224°
2026-05-04 19:54 55.81045 12.95643 2990 ft 204 kts 224°
2026-05-04 19:54 55.79978 12.93969 2993 ft 205 kts 224°
2026-05-04 19:54 55.78910 12.92294 2991 ft 204 kts 224°
2026-05-04 19:55 55.77858 12.90645 2992 ft 197 kts 225°
2026-05-04 19:55 55.76871 12.89101 3008 ft 181 kts 225°
2026-05-04 19:55 55.75977 12.87702 2997 ft 169 kts 225°
2026-05-04 19:55 55.75105 12.86336 2997 ft 165 kts 225°
2026-05-04 19:56 55.74249 12.84995 2989 ft 164 kts 225°
2026-05-04 19:56 55.73394 12.83657 2859 ft 164 kts 226°
2026-05-04 19:56 55.72542 12.82327 2670 ft 163 kts 226°
2026-05-04 19:56 55.71695 12.81003 2470 ft 162 kts 226°
2026-05-04 19:57 55.70846 12.79679 2254 ft 162 kts 226°
2026-05-04 19:57 55.70001 12.78362 2051 ft 161 kts 226°
2026-05-04 19:57 55.69163 12.77056 1827 ft 160 kts 226°
2026-05-04 19:57 55.68327 12.75754 1590 ft 160 kts 226°
2026-05-04 19:58 55.67500 12.74466 1374 ft 157 kts 225°
2026-05-04 19:58 55.66729 12.73270 1154 ft 141 kts 226°
2026-05-04 19:58 55.66024 12.72175 954 ft 130 kts 225°
2026-05-04 19:58 55.65332 12.71092 732 ft 136 kts 224°
2026-05-04 19:59 55.64619 12.69988 597 ft 135 kts 223°
2026-05-04 19:59 55.63911 12.68888 416 ft 136 kts 223°
2026-05-04 19:59 55.63199 12.67789 264 ft 135 kts 224°
2026-05-04 19:59 55.62497 12.66691 47 ft 134 kts 223°
2026-05-04 20:00 55.61878 12.65724 19 ft 96 kts 220°
2026-05-04 20:00 55.61499 12.65141 16 ft 50 kts 223°
2026-05-04 20:00 55.61301 12.64798 18 ft 37 kts 235°
2026-05-04 20:00 55.61224 12.64464 17 ft 23 kts 252°
2026-05-04 20:01 55.61183 12.64216 17 ft 15 kts 269°
2026-05-04 20:01 55.61250 12.64102 17 ft 16 kts 352°
2026-05-04 20:01 55.61348 12.64192 18 ft 16 kts 33°
2026-05-04 20:01 55.61446 12.64304 18 ft 17 kts 33°
2026-05-04 20:02 55.61549 12.64424 17 ft 19 kts 33°
2026-05-04 20:02 55.61617 12.64502 19 ft 0 kts 33°
2026-05-04 20:03 55.61642 12.64530 19 ft 14 kts 33°
2026-05-04 20:03 55.61755 12.64555 17 ft 18 kts 349°
2026-05-04 20:03 55.61883 12.64513 17 ft 20 kts 349°
2026-05-04 20:03 55.62011 12.64544 17 ft 16 kts 31°
2026-05-04 20:04 55.62046 12.64587 17 ft 3 kts 36°
2026-05-04 20:04 55.62082 12.64632 18 ft 10 kts 36°
2026-05-04 20:04 55.62147 12.64629 18 ft 12 kts 310°
2026-05-04 20:04 55.62207 12.64472 17 ft 20 kts 303°
2026-05-04 20:05 55.62299 12.64224 15 ft 27 kts 303°
2026-05-04 20:05 55.62405 12.63943 15 ft 28 kts 303°
2026-05-04 20:05 55.62528 12.63776 17 ft 13 kts 346°
2026-05-04 20:05 55.62594 12.63776 17 ft 9 kts
2026-05-04 20:06 55.62610 12.63783 17 ft 0 kts 17°
2026-05-04 20:06 55.62620 12.63790 17 ft 5 kts 21°
2026-05-04 20:06 55.62665 12.63834 17 ft 9 kts 32°
2026-05-04 20:06 55.62721 12.63898 19 ft 11 kts 34°
2026-05-04 20:07 55.62789 12.63977 18 ft 12 kts 32°
2026-05-04 20:07 55.62833 12.64050 17 ft 8 kts 28°
2026-05-04 20:07 55.62867 12.64065 17 ft 2 kts 12°
2026-05-04 20:07 55.62873 12.64067 17 ft 1 kts 12°
2026-05-04 20:08 55.62875 12.64068 17 ft 0 kts 12°